Location: Brabourne
(51.1333°N, 1.0000°E)
Time: 12:13:04
(UTC+00:00)

ADEOS Rocket - Pass Details

Date: 27 October 2021
Orbit: 858 x 1307 km, 98.8° (Epoch: 26 November)

Event Time Altitude Azimuth Distance (km) Brightness Sun altitude
Exits shadow 22:29:05 11° 20° (NNE) 2,971 5.8 -49.4°
Drops below altitude 10° 22:29:46 10° 15° (NNE) 3,058 5.9 -49.4°
Sets 22:33:46 0° 351° (N) 3,925 6.8 -49.7°
